APSTAR-6E

Last updated on Sat Jun 14 2025 00:02:48 GMT+0000 (Coordinated Universal Time)

1 55239U 23005A 25164.51509699 -.00000303 00000+0 00000+0 0 9991 2 55239 0.0415 250.7925 0003016 286.7750 43.9529 1.00271211 14991
UTC large
Height (km)
Speed (km/s)
/
Latitude / Longitude
Inclination (degrees)
Orbital Period (minutes)
Azimuth
Elevation
Range (km)
Doppler Factor

Next 0 passes for location: London (51.5072 / 0.1276)

Sorry there are no passes over London.